EN

Hourly Weather Osinovka

Today, 14 May, Friday

Time Temperature Precipitation Wind Pressure Humidity
00:00 +20°C° 0 mm 3 mps 756 mmHg 49%
01:00 +19°C° 0 mm 4 mps 756 mmHg 50%
02:00 +19°C° 0 mm 4 mps 756 mmHg 51%
03:00 +18°C° 0 mm 4 mps 756 mmHg 51%
04:00 +18°C° 0 mm 4 mps 756 mmHg 51%
05:00 +18°C° 0 mm 4 mps 756 mmHg 52%
06:00 +19°C° 0 mm 4 mps 756 mmHg 52%
07:00 +21°C° 0 mm 4 mps 756 mmHg 46%
08:00 +23°C° 0 mm 5 mps 756 mmHg 41%
09:00 +26°C° 0 mm 5 mps 756 mmHg 36%
10:00 +27°C° 0 mm 6 mps 756 mmHg 33%
11:00 +28°C° 0 mm 6 mps 756 mmHg 31%
12:00 +29°C° 0 mm 6 mps 756 mmHg 28%
13:00 +29°C° 0 mm 6 mps 756 mmHg 29%
14:00 +30°C° 0 mm 6 mps 756 mmHg 30%
15:00 +30°C° 0 mm 6 mps 756 mmHg 31%
16:00 +29°C° 0 mm 5 mps 756 mmHg 35%
17:00 +27°C° 0 mm 5 mps 756 mmHg 39%
18:00 +26°C° 0 mm 4 mps 755 mmHg 43%
19:00 +25°C° 0 mm 4 mps 755 mmHg 45%
20:00 +22°C° 0 mm 3 mps 756 mmHg 47%
21:00 +20°C° 0 mm 3 mps 756 mmHg 49%
22:00 +20°C° 0 mm 3 mps 755 mmHg 48%
23:00 +19°C° 0 mm 2 mps 755 mmHg 48%

Tomorrow, 15 May, Saturday

Time Temperature Precipitation Wind Pressure Humidity
00:00 +19°C° 0 mm 2 mps 755 mmHg 47%
01:00 +18°C° 0 mm 2 mps 755 mmHg 47%
02:00 +18°C° 0 mm 2 mps 756 mmHg 47%
03:00 +17°C° 0 mm 2 mps 756 mmHg 47%
04:00 +18°C° 0 mm 2 mps 756 mmHg 48%
05:00 +19°C° 0 mm 2 mps 756 mmHg 49%
06:00 +19°C° 0 mm 2 mps 756 mmHg 50%
07:00 +21°C° 0 mm 2 mps 756 mmHg 45%
08:00 +25°C° 0 mm 3 mps 756 mmHg 39%
09:00 +27°C° 0 mm 4 mps 756 mmHg 34%
10:00 +28°C° 0 mm 4 mps 756 mmHg 30%
11:00 +30°C° 0 mm 4 mps 756 mmHg 27%
12:00 +32°C° 0 mm 5 mps 756 mmHg 23%
13:00 +32°C° 0 mm 5 mps 756 mmHg 23%
14:00 +32°C° 0 mm 5 mps 755 mmHg 23%
15:00 +33°C° 0 mm 5 mps 755 mmHg 23%
16:00 +30°C° 0 mm 4 mps 755 mmHg 29%
17:00 +29°C° 0 mm 4 mps 755 mmHg 34%
18:00 +27°C° 0 mm 3 mps 755 mmHg 40%
19:00 +26°C° 0 mm 3 mps 754 mmHg 41%
20:00 +24°C° 0 mm 3 mps 754 mmHg 42%
21:00 +21°C° 0 mm 2 mps 754 mmHg 42%
22:00 +21°C° 0 mm 2 mps 754 mmHg 44%
23:00 +20°C° 0 mm 2 mps 754 mmHg 45%

Day after tomorrow, 16 May, Sunday

Time Temperature Precipitation Wind Pressure Humidity
00:00 +19°C° 0 mm 2 mps 754 mmHg 46%
01:00 +19°C° 0 mm 2 mps 754 mmHg 48%
02:00 +18°C° 0 mm 2 mps 754 mmHg 49%
03:00 +18°C° 0 mm 2 mps 754 mmHg 50%
04:00 +19°C° 0 mm 2 mps 754 mmHg 50%
05:00 +20°C° 0 mm 2 mps 754 mmHg 51%
06:00 +20°C° 0 mm 2 mps 754 mmHg 52%
07:00 +24°C° 0 mm 2 mps 754 mmHg 47%
08:00 +26°C° 0 mm 3 mps 754 mmHg 42%
09:00 +28°C° 0 mm 4 mps 754 mmHg 37%
10:00 +29°C° 0 mm 5 mps 754 mmHg 34%
11:00 +30°C° 0 mm 5 mps 754 mmHg 30%
12:00 +32°C° 0 mm 5 mps 754 mmHg 27%
13:00 +32°C° 0 mm 5 mps 754 mmHg 27%
14:00 +32°C° 0 mm 5 mps 754 mmHg 26%
15:00 +33°C° 0 mm 5 mps 753 mmHg 26%
16:00 +30°C° 0 mm 4 mps 753 mmHg 31%
17:00 +29°C° 0 mm 2 mps 753 mmHg 36%
18:00 +28°C° 0 mm 1 mps 753 mmHg 42%
19:00 +27°C° 0 mm 1 mps 753 mmHg 41%
20:00 +26°C° 0 mm 1 mps 753 mmHg 41%
21:00 +25°C° 0 mm 1 mps 753 mmHg 41%
22:00 +24°C° 0 mm 1 mps 753 mmHg 42%
23:00 +24°C° 0 mm 2 mps 753 mmHg 44%

17 May, Monday

Time Temperature Precipitation Wind Pressure Humidity
00:00 +23°C° 0 mm 2 mps 753 mmHg 45%
01:00 +23°C° 0 mm 2 mps 753 mmHg 46%
02:00 +23°C° 0 mm 2 mps 753 mmHg 46%
03:00 +23°C° 0 mm 1 mps 753 mmHg 46%
04:00 +23°C° 0 mm 2 mps 754 mmHg 48%
05:00 +23°C° 0 mm 2 mps 754 mmHg 51%
06:00 +23°C° 0 mm 2 mps 754 mmHg 53%
07:00 +25°C° 0 mm 2 mps 754 mmHg 49%
08:00 +26°C° 0 mm 3 mps 754 mmHg 44%
09:00 +28°C° 0 mm 3 mps 754 mmHg 40%
10:00 +29°C° 0 mm 3 mps 754 mmHg 37%
11:00 +30°C° 0 mm 3 mps 754 mmHg 34%
12:00 +31°C° 0 mm 3 mps 754 mmHg 31%
13:00 +33°C° 0 mm 3 mps 753 mmHg 30%
14:00 +33°C° 0 mm 3 mps 753 mmHg 28%
15:00 +32°C° 0 mm 2 mps 753 mmHg 26%
16:00 +30°C° 0 mm 3 mps 753 mmHg 31%
17:00 +29°C° 0 mm 3 mps 753 mmHg 35%
18:00 +27°C° 0 mm 3 mps 753 mmHg 39%
19:00 +26°C° 0 mm 2 mps 753 mmHg 38%
20:00 +25°C° 0 mm 2 mps 753 mmHg 38%
21:00 +24°C° 0 mm 1 mps 753 mmHg 38%
22:00 +24°C° 0 mm 1 mps 753 mmHg 39%
23:00 +23°C° 0 mm 1 mps 753 mmHg 40%

18 May, Tuesday

Time Temperature Precipitation Wind Pressure Humidity
00:00 +22°C° 0 mm 1 mps 753 mmHg 41%
01:00 +22°C° 0 mm 1 mps 753 mmHg 42%
02:00 +21°C° 0 mm 1 mps 753 mmHg 43%
03:00 +21°C° 0 mm 1 mps 753 mmHg 44%
04:00 +22°C° 0 mm 1 mps 753 mmHg 46%
05:00 +22°C° 0 mm 1 mps 753 mmHg 48%
06:00 +23°C° 0 mm 1 mps 753 mmHg 51%
07:00 +25°C° 0 mm 2 mps 753 mmHg 46%
08:00 +26°C° 0 mm 2 mps 753 mmHg 42%
09:00 +28°C° 0 mm 3 mps 753 mmHg 37%
10:00 +29°C° 0 mm 3 mps 753 mmHg 33%
11:00 +31°C° 0 mm 3 mps 753 mmHg 29%
12:00 +33°C° 0 mm 4 mps 752 mmHg 25%
13:00 +33°C° 0 mm 3 mps 752 mmHg 24%
14:00 +33°C° 0 mm 3 mps 752 mmHg 23%
15:00 +34°C° 0 mm 3 mps 752 mmHg 22%
16:00 +31°C° 0 mm 2 mps 752 mmHg 27%
17:00 +30°C° 0 mm 2 mps 752 mmHg 31%
18:00 +29°C° 0 mm 1 mps 752 mmHg 36%
19:00 +27°C° 0 mm 1 mps 752 mmHg 35%
20:00 +26°C° 0 mm 1 mps 752 mmHg 34%
21:00 +24°C° 0 mm 1 mps 752 mmHg 33%
22:00 +24°C° 0 mm 1 mps 752 mmHg 34%
23:00 +23°C° 0 mm 2 mps 752 mmHg 35%

19 May, Wednesday

Time Temperature Precipitation Wind Pressure Humidity
00:00 +21°C° 0 mm 2 mps 752 mmHg 36%
01:00 +22°C° 0 mm 1 mps 752 mmHg 38%
02:00 +21°C° 0 mm 1 mps 752 mmHg 40%
03:00 +21°C° 0 mm 1 mps 752 mmHg 42%
04:00 +22°C° 0 mm 1 mps 752 mmHg 44%
05:00 +22°C° 0 mm 1 mps 753 mmHg 45%
06:00 +23°C° 0 mm 1 mps 753 mmHg 47%
07:00 +25°C° 0 mm 1 mps 753 mmHg 42%
08:00 +27°C° 0 mm 2 mps 753 mmHg 36%
09:00 +30°C° 0 mm 2 mps 753 mmHg 31%
10:00 +31°C° 0 mm 3 mps 753 mmHg 28%
11:00 +33°C° 0 mm 3 mps 753 mmHg 24%
12:00 +34°C° 0 mm 3 mps 753 mmHg 21%
13:00 +34°C° 0 mm 3 mps 753 mmHg 21%
14:00 +34°C° 0 mm 3 mps 752 mmHg 21%
15:00 +34°C° 0 mm 3 mps 752 mmHg 22%
16:00 +33°C° 0 mm 3 mps 752 mmHg 28%
17:00 +30°C° 0 mm 2 mps 752 mmHg 34%
18:00 +28°C° 0 mm 2 mps 752 mmHg 40%
19:00 +27°C° 0 mm 2 mps 752 mmHg 40%
20:00 +26°C° 0 mm 2 mps 753 mmHg 40%
21:00 +24°C° 0 mm 3 mps 753 mmHg 41%
22:00 +24°C° 0 mm 3 mps 753 mmHg 41%
23:00 +23°C° 0 mm 2 mps 753 mmHg 42%
Show more

We Need Your Consent

Meteoprog and our Service Providers may store and access personal data such as cookies, device identifiers or other similar technologies on your device and process such data to personalise content and ads, as well as provide social media features and to analyse the traffic.

  • Store and/or access information on your device

    Cookies, device identifiers or other information can be stored or accessed on your device for the purposes indicated above.

  • Personalised ads and content, ad and content measurement, audience insights, and products development

    Ads and content can be personalised based on a profile. More data can be added to better personalise ads and content. Ad and content performance can be measured. Insights about the audience who saw the ads and content can be derived. Such data can be used to develop or improve user’s experience, systems and software.

By clicking ‘I Agree’ you will allow the use of indicated cookies, device identifiers, web beacons or other similar technologies. Your settings can be changed in the browser on your device.

For certain purposes, legitimate interests may be relied on, rather than consent. You can read more about this in our Privacy and Cookie Policy.